• în Republica Moldova
  • Lista ţărilor
  • Pe 7 zile
  • Temperatura apei
  • Hartă satelitară
  • Meteo pe hartă
  • Widget-uri
  • user-avatar
    Intrare

    Meteo pe oră la Coasta de Aur

    Astăzi, 27 Februarie, Luni

    Timp Temperatura Precipitaţii Vânt Presiune Umiditate
    00:00 +21°C° 0,5 mm 5 m/s 758 mmHg 88%
    01:00 +20°C° 0,5 mm 5 m/s 758 mmHg 89%
    02:00 +20°C° 0,5 mm 5 m/s 758 mmHg 89%
    03:00 +20°C° 0,5 mm 5 m/s 758 mmHg 89%
    04:00 +20°C° 0 mm 5 m/s 758 mmHg 88%
    05:00 +21°C° 0,3 mm 5 m/s 758 mmHg 86%
    06:00 +22°C° 0,3 mm 5 m/s 759 mmHg 83%
    07:00 +22°C° 0,3 mm 5 m/s 759 mmHg 81%
    08:00 +25°C° 0,4 mm 5 m/s 759 mmHg 76%
    09:00 +26°C° 0,4 mm 6 m/s 759 mmHg 71%
    10:00 +26°C° 0 mm 5 m/s 760 mmHg 70%
    11:00 +27°C° 0,6 mm 5 m/s 759 mmHg 68%
    12:00 +27°C° 0,6 mm 6 m/s 759 mmHg 65%
    13:00 +28°C° 0,6 mm 6 m/s 759 mmHg 63%
    14:00 +27°C° 0,3 mm 6 m/s 759 mmHg 63%
    15:00 +27°C° 0,3 mm 7 m/s 758 mmHg 63%
    16:00 +26°C° 0 mm 7 m/s 758 mmHg 65%
    17:00 +24°C° 0 mm 7 m/s 759 mmHg 70%
    18:00 +23°C° 0 mm 6 m/s 759 mmHg 74%
    19:00 +22°C° 0 mm 6 m/s 759 mmHg 79%
    20:00 +21°C° 0 mm 6 m/s 759 mmHg 82%
    21:00 +21°C° 0 mm 6 m/s 759 mmHg 84%
    22:00 +20°C° 0 mm 6 m/s 759 mmHg 87%
    23:00 +20°C° 0,3 mm 5 m/s 759 mmHg 88%

    Mâine, 28 Februarie, Marţi

    Timp Temperatura Precipitaţii Vânt Presiune Umiditate
    00:00 +20°C° 0,3 mm 5 m/s 759 mmHg 89%
    01:00 +20°C° 0,3 mm 5 m/s 758 mmHg 90%
    02:00 +20°C° 0,3 mm 5 m/s 758 mmHg 90%
    03:00 +20°C° 0,3 mm 5 m/s 758 mmHg 91%
    04:00 +20°C° 0,3 mm 5 m/s 758 mmHg 91%
    05:00 +20°C° 0,2 mm 5 m/s 758 mmHg 88%
    06:00 +21°C° 0,2 mm 5 m/s 758 mmHg 86%
    07:00 +22°C° 0,2 mm 5 m/s 759 mmHg 83%
    08:00 +23°C° 0,1 mm 5 m/s 759 mmHg 76%
    09:00 +26°C° 0,1 mm 4 m/s 759 mmHg 70%
    10:00 +28°C° 0,1 mm 4 m/s 759 mmHg 63%
    11:00 +28°C° 0,4 mm 4 m/s 759 mmHg 63%
    12:00 +29°C° 0,4 mm 4 m/s 759 mmHg 64%
    13:00 +29°C° 0,4 mm 4 m/s 758 mmHg 64%
    14:00 +29°C° 0,4 mm 4 m/s 758 mmHg 66%
    15:00 +28°C° 0,4 mm 4 m/s 758 mmHg 68%
    16:00 +28°C° 0,4 mm 5 m/s 758 mmHg 70%
    17:00 +26°C° 0,1 mm 4 m/s 758 mmHg 76%
    18:00 +25°C° 0,1 mm 4 m/s 758 mmHg 81%
    19:00 +23°C° 0,1 mm 4 m/s 759 mmHg 87%
    20:00 +22°C° 0,2 mm 4 m/s 759 mmHg 88%
    21:00 +22°C° 0,2 mm 3 m/s 759 mmHg 89%
    22:00 +22°C° 0,2 mm 3 m/s 760 mmHg 90%
    23:00 +22°C° 0,2 mm 3 m/s 759 mmHg 91%

    Poimâine, 1 Martie, Miercuri

    Timp Temperatura Precipitaţii Vânt Presiune Umiditate
    00:00 +21°C° 0,2 mm 3 m/s 759 mmHg 92%
    01:00 +21°C° 0,2 mm 3 m/s 759 mmHg 93%
    02:00 +21°C° 0,3 mm 3 m/s 758 mmHg 94%
    03:00 +21°C° 0,3 mm 3 m/s 758 mmHg 94%
    04:00 +21°C° 0,3 mm 3 m/s 758 mmHg 95%
    05:00 +21°C° 0,1 mm 4 m/s 758 mmHg 93%
    06:00 +22°C° 0,1 mm 4 m/s 759 mmHg 91%
    07:00 +22°C° 0,1 mm 5 m/s 759 mmHg 88%
    08:00 +25°C° 0 mm 5 m/s 759 mmHg 78%
    09:00 +27°C° 0 mm 5 m/s 759 mmHg 69%
    10:00 +30°C° 0 mm 5 m/s 759 mmHg 59%
    11:00 +30°C° 0,1 mm 5 m/s 759 mmHg 59%
    12:00 +32°C° 0,1 mm 5 m/s 758 mmHg 58%
    13:00 +32°C° 0,1 mm 5 m/s 758 mmHg 58%
    14:00 +32°C° 0,2 mm 5 m/s 757 mmHg 60%
    15:00 +30°C° 0,2 mm 5 m/s 757 mmHg 62%
    16:00 +30°C° 0,2 mm 5 m/s 757 mmHg 64%
    17:00 +28°C° 0 mm 5 m/s 757 mmHg 70%
    18:00 +26°C° 0 mm 4 m/s 758 mmHg 77%
    19:00 +25°C° 0 mm 4 m/s 758 mmHg 84%
    20:00 +23°C° 0,1 mm 4 m/s 758 mmHg 87%
    21:00 +24°C° 0,1 mm 3 m/s 759 mmHg 90%
    22:00 +22°C° 0,1 mm 3 m/s 759 mmHg 93%
    23:00 +22°C° 0 mm 3 m/s 758 mmHg 93%

    2 Martie, Joi

    Timp Temperatura Precipitaţii Vânt Presiune Umiditate
    00:00 +21°C° 0 mm 3 m/s 758 mmHg 94%
    01:00 +21°C° 0 mm 2 m/s 758 mmHg 95%
    02:00 +21°C° 0 mm 2 m/s 757 mmHg 95%
    03:00 +21°C° 0 mm 3 m/s 757 mmHg 96%
    04:00 +21°C° 0 mm 3 m/s 757 mmHg 96%
    05:00 +22°C° 0 mm 3 m/s 757 mmHg 93%
    06:00 +22°C° 0 mm 4 m/s 758 mmHg 91%
    07:00 +23°C° 0 mm 4 m/s 758 mmHg 88%
    08:00 +26°C° 0,1 mm 4 m/s 758 mmHg 79%
    09:00 +28°C° 0,1 mm 4 m/s 758 mmHg 69%
    10:00 +30°C° 0,1 mm 4 m/s 758 mmHg 60%
    11:00 +30°C° 0,2 mm 4 m/s 758 mmHg 60%
    12:00 +32°C° 0,2 mm 4 m/s 757 mmHg 60%
    13:00 +32°C° 0,2 mm 4 m/s 756 mmHg 59%
    14:00 +32°C° 0,2 mm 4 m/s 756 mmHg 61%
    15:00 +30°C° 0,2 mm 4 m/s 756 mmHg 63%
    16:00 +30°C° 0,2 mm 4 m/s 755 mmHg 65%
    17:00 +28°C° 0 mm 4 m/s 756 mmHg 72%
    18:00 +26°C° 0 mm 3 m/s 756 mmHg 79%
    19:00 +25°C° 0 mm 3 m/s 757 mmHg 87%
    20:00 +24°C° 0 mm 3 m/s 757 mmHg 89%
    21:00 +24°C° 0 mm 2 m/s 757 mmHg 91%
    22:00 +23°C° 0 mm 2 m/s 758 mmHg 93%
    23:00 +23°C° 0 mm 2 m/s 757 mmHg 93%

    3 Martie, Vineri

    Timp Temperatura Precipitaţii Vânt Presiune Umiditate
    00:00 +23°C° 0 mm 2 m/s 757 mmHg 94%
    01:00 +21°C° 0 mm 2 m/s 757 mmHg 95%
    02:00 +21°C° 0 mm 2 m/s 756 mmHg 95%
    03:00 +21°C° 0 mm 2 m/s 756 mmHg 96%
    04:00 +21°C° 0 mm 2 m/s 756 mmHg 96%
    05:00 +22°C° 0 mm 3 m/s 756 mmHg 94%
    06:00 +22°C° 0 mm 3 m/s 757 mmHg 91%
    07:00 +24°C° 0 mm 3 m/s 757 mmHg 89%
    08:00 +26°C° 0 mm 3 m/s 757 mmHg 79%
    09:00 +28°C° 0 mm 3 m/s 757 mmHg 69%
    10:00 +30°C° 0 mm 3 m/s 757 mmHg 59%
    11:00 +30°C° 0,2 mm 4 m/s 757 mmHg 59%
    12:00 +32°C° 0,2 mm 4 m/s 756 mmHg 59%
    13:00 +32°C° 0,2 mm 4 m/s 756 mmHg 58%
    14:00 +32°C° 0,2 mm 4 m/s 755 mmHg 61%
    15:00 +30°C° 0,2 mm 5 m/s 755 mmHg 63%
    16:00 +30°C° 0,2 mm 5 m/s 755 mmHg 66%
    17:00 +28°C° 0,1 mm 4 m/s 755 mmHg 73%
    18:00 +26°C° 0,1 mm 4 m/s 756 mmHg 80%
    19:00 +25°C° 0,1 mm 3 m/s 756 mmHg 87%
    20:00 +24°C° 0,1 mm 3 m/s 757 mmHg 89%
    21:00 +24°C° 0,1 mm 3 m/s 757 mmHg 91%
    22:00 +22°C° 0,1 mm 3 m/s 757 mmHg 93%
    23:00 +22°C° 0,2 mm 3 m/s 757 mmHg 94%

    4 Martie, Sâmbătă

    Timp Temperatura Precipitaţii Vânt Presiune Umiditate
    00:00 +22°C° 0,2 mm 3 m/s 757 mmHg 95%
    01:00 +21°C° 0,2 mm 3 m/s 756 mmHg 95%
    02:00 +21°C° 0 mm 3 m/s 756 mmHg 96%
    03:00 +21°C° 0 mm 3 m/s 756 mmHg 96%
    04:00 +21°C° 0 mm 3 m/s 756 mmHg 96%
    05:00 +22°C° 0 mm 3 m/s 756 mmHg 93%
    06:00 +22°C° 0 mm 4 m/s 756 mmHg 91%
    07:00 +23°C° 0 mm 4 m/s 757 mmHg 88%
    08:00 +26°C° 0 mm 4 m/s 757 mmHg 79%
    09:00 +28°C° 0 mm 4 m/s 757 mmHg 69%
    10:00 +30°C° 0 mm 4 m/s 757 mmHg 60%
    11:00 +30°C° 0,3 mm 4 m/s 756 mmHg 62%
    12:00 +30°C° 0,3 mm 4 m/s 756 mmHg 64%
    13:00 +30°C° 0,3 mm 4 m/s 755 mmHg 65%
    14:00 +29°C° 0,5 mm 4 m/s 755 mmHg 69%
    15:00 +29°C° 0,5 mm 4 m/s 755 mmHg 72%
    16:00 +28°C° 0,5 mm 3 m/s 754 mmHg 76%
    17:00 +27°C° 0,5 mm 3 m/s 755 mmHg 81%
    18:00 +25°C° 0,5 mm 2 m/s 755 mmHg 86%
    19:00 +24°C° 0,5 mm 2 m/s 755 mmHg 91%
    20:00 +23°C° 0,7 mm 2 m/s 755 mmHg 93%
    21:00 +23°C° 0,7 mm 2 m/s 755 mmHg 94%
    22:00 +21°C° 0,7 mm 2 m/s 755 mmHg 95%
    23:00 +21°C° 0,5 mm 2 m/s 755 mmHg 95%
    Arată mai mult